Miscellaneous Local Product
Issued by NWS Hastings, NE

Home | Current Version | Previous Version | Text Only | Print | Product List | Glossary On
Versions: 1 2 3 4 5 6 7 8 9 10 11 12 13 14 15 16 17 18 19 20 21 22 23 24 25 26 27 28 29 30 31 32 33 34 35 36 37 38 39 40 41 42 43 44 45 46 47 48 49 50
000
AXUS43 KGID 250002
MISGRI

GID CWA HOURLY WEATHER ROUNDUP
NATIONAL WEATHER SERVICE HASTINGS NE
700 PM CDT SUN MAY 24 2015

NOTE: "FAIR" INDICATES FEW OR NO CLOUDS BELOW 12,000 FEET WITH NO
SIGNIFICANT WEATHER AND/OR OBSTRUCTIONS TO VISIBILITY.

...SOUTH CENTRAL NEBRASKA...

CITY           SKY/WX    TMP DP  RH WIND       PRES   REMARKS
GRAND ISLAND   CLOUDY    67  58  72 S6        29.80F
HASTINGS       CLOUDY    65  58  78 S6        29.80F
KEARNEY        CLOUDY    63  57  82 SE5       29.79F
ORD            CLOUDY    65  57  75 CALM      29.78F
YORK           CLOUDY    66  61  82 SW8       29.81F
AURORA         CLOUDY    67  59  77 S8        29.80F
LEXINGTON      CLOUDY    65  59  83 E12       29.78F
HOLDREGE       CLOUDY    64  57  77 E7        29.79F
HEBRON         CLOUDY    65  61  87 SE3       29.81F

...NEBRASKA PANHANDLE...

CITY           SKY/WX    TMP DP  RH WIND       PRES   REMARKS
CHADRON        MOSUNNY   60  54  80 NE12      29.79S
ALLIANCE       PTSUNNY   68  49  50 SE8       29.76F
SCOTTSBLUFF    CLOUDY    65  46  50 S7        29.77F
SIDNEY         LGT RAIN  51  47  86 S21       29.84S FOG

...WESTERN AND NORTH CENTRAL NEBRASKA...

CITY           SKY/WX    TMP DP  RH WIND       PRES   REMARKS
VALENTINE      PTSUNNY   64  57  78 E15       29.79F
AINSWORTH      CLOUDY    64  61  91 E10       29.80F
ONEILL         CLOUDY    62  60  90 CALM      29.82S
BROKEN BOW     PTSUNNY   66  58  75 E12       29.78F
IMPERIAL       LGT RAIN  66  56  70 SE15      29.74F
NORTH PLATTE   MOSUNNY   67  56  67 E18       29.78R
MCCOOK         PTSUNNY   69  58  67 E14G25    29.76S

...EASTERN NEBRASKA...

CITY           SKY/WX    TMP DP  RH WIND       PRES   REMARKS
NORFOLK        CLOUDY    65  59  81 CALM      29.78F
SO SIOUX CITY  CLOUDY    64  60  87 CALM      29.78F FOG
TEKAMAH        CLOUDY    68  61  78 SW7       29.77F
COLUMBUS       CLOUDY    66  57  72 W3        29.82F
ALBION         CLOUDY    64  57  79 CALM      29.80F
OMAHA EPPLEY   CLOUDY    70  61  73 SW5       29.78F
OFFUTT AFB     CLOUDY    69  63  80 S8        29.77F
MILLARD        CLOUDY    70  62  74 SW5       29.78F
LINCOLN        CLOUDY    68  61  78 SW7       29.79F
NEBRASKA CITY  CLOUDY    67  60  76 SW10      29.80F
BEATRICE       CLOUDY    66  60  80 SW9       29.80F
FALLS CITY     CLOUDY    67  61  81 S12       29.80F

...NORTHERN KANSAS...

CITY           SKY/WX    TMP DP  RH WIND       PRES   REMARKS
GOODLAND       PTSUNNY   66  54  65 SE15      29.76R
HILL CITY      CLOUDY    68  58  70 SE12      29.77F
NORTON         MOCLDY    68  57  68 E10       29.77S
PHILLIPSBURG   PTSUNNY   70  61  73 SE10      29.78F HAZE
SMITH CENTER   CLOUDY    66  61  82 SE12      29.79F
HAYS           CLOUDY    64  55  72 S10       29.79S
RUSSELL        CLOUDY    67  60  78 SE16      29.78F
CONCORDIA      CLOUDY    66  60  81 S12       29.81F
SALINA         CLOUDY    69  61  75 S12       29.81F
TOPEKA         CLOUDY    67  62  84 S7        29.83F



USA.gov is the U.S. government's official web portal to all federal, state and local government web resources and services.